Location: Mt. Chestnut Observatory
(40.9038°N, 79.9956°W)
Time: 18:39:53
(UTC-05:00)

Daily predictions for brighter satellites

Satellite Brightness Start Highest point End
(mag) Time Altitude Azimuth Time Altitude Azimuth Time Altitude Azimuth
Cosmos 2026 Rocket 4.2 17:11:12 10° N 17:17:27 53° E 17:23:35 10° SSE
Cosmos 990 Rocket 4.4 17:15:57 10° S 17:20:48 44° ESE 17:25:40 10° NNE
Okean 3 3.8 17:18:01 10° SSW 17:22:10 71° W 17:26:23 10° N
ALOS 3.8 17:22:24 10° E 17:24:52 14° ENE 17:27:20 10° NNE
AQUARIUS 4.4 17:21:40 10° SE 17:25:57 45° ENE 17:30:14 10° N
Hubble Space Telescope 3.3 17:26:00 10° SSW 17:27:50 13° S 17:29:40 10° SE
CSL-04 Debris 4.2 17:24:41 10° SSE 17:29:58 60° ENE 17:35:17 10° N
Cosmos 2150 Rocket 4.4 17:25:48 10° S 17:31:02 50° ESE 17:36:18 10° NNE
ISS -2.2 17:32:02 10° NNW 17:34:33 20° NNE 17:36:46 11° ENE
Meteor 1-12 Rocket 4.4 17:29:12 10° N 17:34:45 53° ENE 17:40:20 10° SSE
ATLAS 2AS CENTAUR R/B 3.3 17:30:52 10° SSW 17:38:18 56° ESE 17:46:10 10° NE
Abrixas rocket 2.1 17:35:50 10° WSW 17:39:04 86° SSE 17:41:53 13° ENE
Cosmos 1932 4.5 17:32:48 10° NNW 17:39:09 63° NE 17:45:19 10° SE
Aureole 1 Rocket 4.1 17:33:52 10° NNW 17:39:37 64° ENE 17:46:59 10° SSE
BREEZE-M DEB (TANK) 3.7 17:38:17 10° WNW 17:40:11 22° N 17:42:56 11° NE
NOSS 2-3 (E) 4.0 17:37:15 10° SW 17:41:52 75° NW 17:47:14 10° NNE
ATLAS 3B R/B 3.1 17:42:42 10° NNW 17:48:52 37° NE 17:54:50 10° ESE
Cosmos 1428 Rocket 4.4 17:43:17 10° N 17:49:28 68° E 17:55:33 10° SSE
IRS-1A Rocket 4.3 17:45:25 10° SSE 17:50:54 56° ENE 17:56:19 10° N
Meteor 1-28 Rocket 3.1 17:47:21 10° NNE 17:51:06 71° E 17:54:51 10° S
CSL-04 Rocket 3.9 17:47:26 10° S 17:52:49 78° WSW 17:58:20 10° NNW
Cosmos 1455 Rocket 3.4 17:48:59 10° N 17:53:12 41° ENE 17:57:21 10° SSE
Cosmos 1743 2.9 17:50:02 10° N 17:53:49 49° E 17:57:34 10° SSE
USA 215 4.0 17:49:20 10° SSE 17:55:44 57° SW 18:02:11 10° NW
Cosmos 1544 Rocket 3.7 17:52:41 10° N 17:56:56 49° ENE 18:01:08 10° SSE
Cosmos 1607 4.2 17:51:14 10° NW 17:57:45 77° WSW 18:04:09 10° SSE
Atlas Centaur 2 3.6 17:53:53 10° SW 17:57:48 22° S 18:01:09 10° SE
FENGYUN 3A 4.3 17:53:41 10° SE 17:58:24 32° ENE 18:03:07 10° N
Cosmos 1697 Rocket 4.2 17:55:19 10° SE 17:58:27 15° E 17:59:15 15° E
YAOGAN 1 2.6 17:55:29 10° SSE 17:59:42 55° ENE 18:03:56 10° N
Cosmos 2082 4.4 17:56:52 10° N 18:01:45 29° NE 18:06:36 10° ESE
Okean 1 4.0 17:58:34 10° SSW 18:02:28 56° W 18:06:23 10° N
MTI 4.3 18:00:17 17° NE 18:02:29 39° E 18:05:33 10° S
Cosmos 2279 Rocket 4.0 17:56:17 10° S 18:02:32 89° E 18:08:51 10° N
BREEZE-M DEB (TANK) 2.5 18:01:58 10° NW 18:04:40 82° NE 18:12:41 10° ESE
METEOR-M 4.1 18:04:07 10° SSE 18:09:22 65° ENE 18:14:40 10° N
COSMO-SKYMED 1 2.7 18:09:01 10° NNE 18:13:18 54° E 18:17:32 10° S
NOAA 12 4.4 18:08:55 10° SE 18:13:52 42° ENE 18:18:48 10° N
Cosmos 389 Rocket 2.7 18:11:48 10° NNW 18:15:17 71° W 18:18:43 10° S
Cosmos 1975 3.7 18:11:46 10° NNW 18:15:41 52° W 18:19:37 10° S
Landsat 4 3.6 18:12:41 11° NNE 18:16:25 75° ESE 18:20:13 10° S
Ariane Rocket 3.9 18:11:42 10° S 18:16:36 52° W 18:21:33 10° NNW
USA 116 3.4 18:13:22 10° N 18:16:40 71° WNW 18:19:45 10° SSW
Cosmos 2227 Rocket 2.4 18:11:30 10° NNW 18:16:59 47° ENE 18:22:25 10° SE
Cosmos 2219 3.6 18:12:32 10° NNW 18:18:06 66° WSW 18:23:40 10° S
Cosmos 1271 Rocket 2.7 18:16:46 10° N 18:20:34 84° W 18:24:22 10° S
CZ-4 R/B 2.1 18:18:52 10° S 18:22:37 52° W 18:26:27 10° NNW
MONITOR-E 4.0 18:22:10 10° SSE 18:25:10 63° ENE 18:28:11 10° N
Cosmos 1125 Rocket 3.7 18:20:49 10° S 18:25:53 48° ESE 18:28:37 25° NE
Meteor 2-9 Rocket 4.1 18:21:44 10° N 18:27:16 66° E 18:32:37 10° SSE
SJ 16-02 1.6 18:26:57 10° S 18:31:08 46° ESE 18:32:11 38° ENE
CENTAUR R/B 4.1 18:26:34 10° NNW 18:32:24 23° NNE 18:33:46 22° NE
DELTA 2 R/B (1) 3.6 18:27:38 10° WSW 18:33:11 72° S 18:35:44 33° E
Cosmos 1048 Rocket 4.1 18:30:49 10° N 18:36:05 51° ENE 18:41:17 10° SE
Cosmos 1980 Rocket 3.9 18:33:33 10° SE 18:35:11 15° SE 18:35:11 15° SE
ERS-2 2.1 18:35:10 10° SSE 18:38:50 85° WSW 18:42:31 10° NNW
Meteor 1-13 Rocket 4.4 18:35:03 10° SSW 18:40:34 72° W 18:46:16 10° N
Cosmos 2297 Rocket 2.1 18:38:47 10° NNW 18:44:26 67° ENE 18:50:02 10° SSE
USA 238 DEB 3.7 18:39:26 10° NNW 18:46:35 81° NE 18:53:48 10° SE
USA 238 3.7 18:39:32 10° NNW 18:46:41 81° NE 18:53:53 10° SE
Meteor 2-4 Rocket 3.8 18:46:06 10° SSW 18:51:34 74° W 18:56:58 10° N
Cosmos 1536 Rocket 4.0 18:47:53 10° SSW 18:52:13 62° W 18:55:33 16° N
Meteor 1-15 Rocket 4.2 18:49:17 10° N 18:55:13 67° ENE 19:01:05 10° SSE
Cosmos 372 Rocket 3.9 18:56:05 10° SSW 19:01:19 85° WNW 19:03:11 41° NNE
Cosmos 1025 Rocket 4.2 18:57:24 10° S 18:59:38 29° SSE 18:59:38 29° SSE
ALOS 2.7 18:57:09 10° S 19:01:46 63° W 19:06:25 10° NNW
Cosmos 2266 Rocket 4.2 18:58:06 10° NNW 19:04:06 67° W 19:10:11 10° S
Hubble Space Telescope 3.2 19:06:04 10° SW 19:08:17 14° S 19:08:42 14° S
Cosmos 1656 3.6 19:05:27 10° SSW 19:11:03 84° WNW 19:12:28 52° NNE
ISS -1.6 19:08:05 10° NW 19:09:28 23° NW 19:09:28 23° NW
Cosmos 2369 3.8 19:05:54 10° SSW 19:11:33 73° WNW 19:13:40 40° N
Gbstr 26 Del rocket 4.3 19:05:21 10° SW 19:13:13 64° SE 19:14:36 55° E
Cosmos 2278 3.8 19:08:06 10° SSW 19:13:46 74° WNW 19:15:39 43° N
NOSS 3-2 (A) 3.9 19:10:34 10° NNW 19:18:09 77° NE 19:21:35 39° SE
NOSS 3-2 (C) 3.9 19:15:35 10° NNW 19:23:05 66° NE 19:24:22 58° E
BREEZE-M DEB (TANK) 4.3 19:24:29 10° NW 19:27:08 58° NNW 19:27:08 58° NNW
ATLAS 2AS CENTAUR R/B 4.0 19:22:19 10° WSW 19:29:38 41° NW 19:34:19 22° NNE
Cosmos 1244 Rocket 4.3 19:27:13 10° N 19:33:23 88° W 19:39:33 10° S
FengYun 1-2 T 4.4 19:28:21 10° S 19:33:55 72° WSW 19:39:34 10° NNW
Thor Agena Rocket 4.3 19:38:34 46° SSW 19:38:34 46° SSW 19:42:14 10° SSW
ATLAS 3B R/B 3.5 19:33:23 10° NW 19:39:39 46° WSW 19:45:46 10° S
Cosmos 1697 Rocket 3.0 19:36:05 10° SSW 19:41:03 64° WSW 19:41:03 64° WSW
Atlas Centaur 2 4.1 19:43:24 10° SW 19:44:41 13° SW 19:44:41 13° SW
NOSS 3-4 (A) 3.7 19:43:55 10° SW 19:49:05 64° SW 19:49:05 64° SW
NOSS 3-4 (C) 3.7 19:44:00 10° SW 19:49:08 63° SW 19:49:08 63° SW
Cosmos 2227 Rocket 4.3 19:56:15 10° NW 20:00:41 24° WSW 20:05:05 10° SSW
SJ 16-02 4.1 20:07:10 10° W 20:09:14 16° WNW 20:09:14 16° WNW
Cosmos 1980 Rocket 4.2 20:15:18 10° SW 20:17:02 20° SW 20:17:02 20° SW
CENTAUR R/B 4.0 20:16:38 10° NNW 20:20:58 37° NNW 20:20:58 37° NNW
